Wind_Speed
46 45 44 44 45 46 47 47 47 49 50 50 50 49 49 50 51 52 52 52 52 52 53 53 52 51 51 50 49 49 48 47 46 47 46 45 45 44 44 44 44 43
49 48 48 47 47 47 47 47 48 49 51 51 51 51 51 51 52 54 55 55 55 56 56 57 56 56 55 54 53 52 51 50 50 50 50 49 48 48 48 47 47 47
52 52 52 51 51 51 51 51 51 51 51 52 53 53 53 53 53 55 57 58 59 59 60 60 60 59 59 58 57 56 55 55 54 54 54 53 53 52 52 52 52 52
50 53 55 55 55 55 56 56 56 55 55 54 54 54 54 55 55 56 59 60 61 62 63 64 63 62 61 60 60 60 60 60 61 61 61 60 60 59 58 57 56 56
42 46 50 53 56 57 59 59 59 59 59 59 58 58 57 58 59 61 62 61 62 64 65 66 67 66 64 63 63 63 64 64 65 65 66 66 66 66 65 64 63 62
39 41 44 47 50 53 56 58 59 59 60 60 58 57 58 59 60 63 65 65 65 65 65 65 67 67 66 65 65 66 67 68 68 69 69 70 70 70 70 70 70 70
39 41 43 45 47 49 51 53 53 54 55 52 48 50 56 58 57 59 63 66 68 68 67 67 68 69 69 70 71 72 73 74 74 74 74 74 74 74 74 74 74 75
40 41 43 45 47 48 49 49 50 49 48 43 40 46 52 53 54 55 58 62 66 69 71 72 73 74 75 76 77 77 77 78 78 78 79 78 78 78 78 78 78 78
44 44 44 44 46 48 49 50 50 49 47 43 41 44 46 48 51 54 57 61 65 69 72 74 75 76 77 78 78 79 79 79 80 80 81 82 82 83 83 83 83 83
42 44 44 44 44 47 49 50 51 50 47 44 43 43 43 46 49 52 56 61 64 67 69 70 72 73 75 77 78 78 79 80 80 80 80 82 84 85 86 87 87 86
36 39 40 40 40 42 44 45 47 47 41 32 31 36 40 41 43 46 51 54 57 60 62 63 65 67 70 72 74 76 77 78 79 79 78 79 80 81 82 84 87 88
33 35 36 35 35 37 39 40 39 39 36 29 26 29 37 41 40 40 44 48 51 53 55 56 57 59 62 65 68 70 71 72 74 76 76 76 76 76 76 77 80 82
32 33 33 33 32 34 36 37 35 33 33 34 36 34 35 41 43 40 41 45 48 49 52 53 54 55 57 58 60 61 63 65 68 71 73 73 72 72 72 73 74 76
33 33 33 32 31 32 33 35 35 32 31 35 41 42 40 42 45 44 42 44 47 48 50 52 54 56 57 57 56 56 54 53 55 61 67 70 71 71 71 72 73 74
36 35 34 33 31 31 31 33 34 33 34 37 43 47 46 45 46 47 45 46 47 48 49 52 54 56 57 56 55 53 50 45 45 51 58 63 66 68 70 70 70 71
38 37 36 35 32 30 30 31 32 33 37 41 44 48 51 51 50 49 49 47 46 46 49 53 55 56 56 55 54 52 49 48 49 52 56 59 62 65 67 67 67 68
40 39 38 36 34 32 30 31 32 33 36 42 47 51 53 55 54 53 53 51 49 50 53 56 57 56 54 52 51 49 47 49 52 54 57 61 63 64 65 65 65 66
42 41 40 39 36 34 32 31 32 33 35 39 47 52 54 56 56 57 57 56 55 56 58 59 60 59 57 54 51 50 50 53 54 56 59 62 63 64 64 64 65 65
45 44 43 42 40 37 35 33 32 33 34 37 43 49 54 56 58 59 61 61 61 61 61 62 63 62 62 61 58 56 56 58 60 61 61 61 62 63 63 64 65 65
48 46 45 45 44 42 39 36 33 32 34 36 40 46 51 55 58 60 62 64 65 65 65 66 66 66 67 67 64 62 62 64 66 65 62 60 60 60 61 63 64 65
50 49 48 47 46 45 43 40 37 34 33 35 38 43 48 52 56 59 62 64 65 66 67 68 69 70 71 70 68 66 65 65 64 60 57 56 56 55 56 58 60 61
53 52 51 50 49 48 46 44 42 39 36 35 36 39 44 50 55 59 61 64 65 67 69 70 71 72 72 71 69 67 64 60 55 51 49 49 49 49 50 52 53 55
55 54 54 53 53 52 50 47 45 44 41 39 38 38 41 46 52 58 62 64 66 68 69 70 70 70 70 68 66 63 59 54 49 46 46 45 45 46 46 47 48 48
56 56 56 56 56 55 53 50 48 46 45 44 43 42 41 42 46 52 57 61 65 67 68 68 68 66 65 63 60 57 54 51 48 48 47 46 45 44 44 44 45 45
57 58 58 58 59 58 56 54 51 49 47 46 46 47 46 45 44 46 50 55 59 62 64 64 62 60 58 57 55 53 52 51 51 51 51 49 47 45 44 44 43 44
57 58 59 60 60 60 59 58 55 52 50 48 47 48 49 49 48 47 47 49 53 56 59 59 56 54 52 51 50 50 52 53 54 54 54 52 51 50 48 46 45 45
Wind_Direction
252 253 255 255 253 252 252 251 248 245 245 246 246 246 246 245 244 245 246 247 246 246 247 248 249 250 251 251 251 251 252 253 255 257 260 261 262 262 263 263 264 263
254 254 254 254 255 256 256 255 253 250 248 249 250 250 250 250 248 247 247 247 248 248 248 249 249 250 251 252 252 253 253 254 255 256 257 259 261 261 260 259 259 259
254 255 254 253 253 254 256 258 258 257 254 253 252 253 254 255 254 253 251 249 249 249 250 250 250 250 251 253 254 255 256 256 257 257 257 259 261 262 261 260 258 258
256 256 255 255 254 253 254 255 257 259 259 258 258 257 257 258 258 257 255 253 251 251 251 251 251 251 252 254 255 257 258 258 259 260 261 262 264 264 264 262 260 259
262 261 259 258 257 255 255 254 255 256 258 260 262 263 263 262 261 259 257 256 255 254 253 253 252 252 253 254 256 258 260 260 261 262 262 264 265 265 265 265 263 263
269 267 265 263 261 259 258 257 257 257 259 260 263 267 268 265 263 260 258 256 255 255 255 255 254 254 254 255 258 261 262 263 263 263 264 265 266 266 267 267 266 266
272 271 270 268 266 264 262 261 261 261 263 262 261 262 265 265 263 262 260 259 259 260 259 259 259 259 259 260 262 264 265 265 265 265 265 265 266 266 267 268 268 268
271 273 273 272 271 268 266 264 264 265 266 263 254 251 256 260 261 262 263 264 263 263 263 263 263 263 263 264 264 265 266 266 266 266 266 266 267 267 266 267 267 267
270 272 274 275 275 273 271 269 269 269 269 266 259 254 254 257 259 260 263 263 262 263 264 264 265 265 265 266 266 267 267 267 267 268 268 268 267 267 266 266 266 266
273 272 273 275 277 276 274 273 272 271 271 272 271 268 262 260 261 261 261 261 261 261 262 264 264 265 265 266 266 267 267 268 268 268 268 268 268 267 267 268 268 267
281 278 276 276 278 278 277 275 271 267 265 267 272 274 271 267 265 264 263 262 261 261 262 263 264 265 266 266 266 266 267 268 268 268 268 268 268 268 268 268 268 268
290 286 282 279 278 280 281 279 272 263 255 244 242 255 265 269 268 267 267 266 264 263 263 263 264 265 266 267 268 268 267 267 267 267 267 267 267 268 268 268 268 268
299 293 288 283 281 280 282 281 274 260 248 238 231 232 246 259 264 264 265 266 265 264 264 264 264 265 266 267 269 270 270 270 269 269 267 267 268 268 269 269 268 269
308 302 295 290 286 283 282 282 276 260 245 239 237 236 238 247 256 260 261 263 264 264 265 266 266 265 266 267 269 271 273 273 272 271 269 267 267 269 270 270 270 269
315 310 304 298 293 287 282 282 277 262 246 240 241 243 245 247 251 256 259 263 267 269 270 270 270 269 269 269 270 271 271 269 267 269 270 268 267 268 269 269 269 269
319 316 311 305 299 292 285 282 279 266 250 242 240 243 246 247 249 254 258 262 267 270 273 273 274 274 274 275 277 275 272 271 269 267 268 270 271 271 271 270 269 268
321 319 315 310 304 298 290 285 282 273 258 246 241 242 245 246 249 254 258 261 265 269 272 274 277 279 280 282 285 284 283 283 280 274 272 273 275 274 273 273 272 271
322 321 318 314 309 304 296 288 283 279 269 255 247 245 246 247 251 255 257 260 265 268 271 274 277 280 282 284 286 287 289 291 290 284 279 277 276 275 273 273 273 274
322 322 321 318 313 308 302 293 285 281 277 266 256 251 250 251 253 256 258 261 265 268 271 273 275 278 280 282 284 286 289 292 293 291 286 282 279 276 275 274 274 274
324 322 322 320 316 312 307 300 291 283 280 276 267 259 255 254 256 257 260 262 265 268 270 271 273 275 278 281 284 287 290 293 294 293 289 284 281 280 278 277 276 275
323 322 322 322 319 315 311 307 300 291 284 281 276 268 261 258 257 258 260 262 264 266 268 270 272 275 278 281 284 288 292 293 293 291 288 285 284 283 282 280 279 278
321 321 321 322 322 319 313 309 306 299 291 285 281 276 269 263 259 258 259 261 263 266 268 270 272 275 278 281 285 288 290 289 287 287 287 287 286 285 284 283 283 282
318 319 319 320 322 321 317 312 307 304 298 290 285 283 278 271 264 261 260 261 263 265 267 270 273 276 279 282 285 287 286 282 282 285 287 287 288 288 286 285 285 285
315 316 317 319 320 321 320 315 309 305 302 296 290 287 285 281 275 271 267 266 266 266 268 271 274 277 280 282 283 283 280 277 280 283 285 287 289 290 289 287 287 287
312 314 315 317 319 320 320 319 313 307 302 298 293 289 286 284 281 278 275 273 271 270 271 272 275 278 279 280 281 280 277 277 280 284 286 287 288 289 289 288 288 289
309 311 313 315 317 319 320 320 316 309 303 299 294 289 286 285 283 281 279 276 275 274 274 273 274 276 277 277 278 279 279 281 284 287 289 290 289 289 290 290 289 291
Height
10704 10705 10707 10708 10710 10711 10713 10715 10716 10717 10718 10719 10721 10723 10723 10724 10725 10726 10727 10727 10727 10727 10727 10728 10729 10730 10732 10733 10734 10735 10736 10737 10738 10739 10740 10741 10742 10743 10744 10744 10745 10745
10700 10701 10703 10704 10706 10707 10708 10709 10711 10712 10713 10715 10716 10718 10719 10720 10721 10722 10722 10722 10722 10722 10721 10722 10723 10724 10726 10727 10729 10730 10731 10731 10732 10733 10734 10735 10737 10738 10739 10739 10740 10740
10695 10696 10698 10700 10701 10702 10703 10704 10705 10706 10708 10709 10711 10713 10715 10715 10716 10717 10716 10716 10715 10715 10715 10715 10716 10718 10719 10721 10723 10724 10725 10726 10726 10727 10728 10729 10731 10732 10733 10733 10734 10734
10688 10690 10692 10693 10695 10696 10697 10699 10700 10700 10701 10703 10705 10708 10710 10710 10710 10710 10709 10709 10709 10709 10709 10709 10709 10711 10713 10715 10717 10718 10718 10719 10720 10721 10722 10723 10724 10724 10725 10726 10726 10727
10682 10683 10684 10686 10688 10689 10690 10692 10694 10695 10696 10697 10699 10701 10703 10704 10704 10702 10702 10702 10702 10701 10702 10702 10703 10705 10707 10708 10709 10710 10711 10711 10712 10713 10714 10715 10715 10716 10717 10718 10718 10719
10677 10678 10678 10679 10681 10682 10683 10685 10687 10690 10692 10695 10699 10698 10693 10692 10693 10692 10693 10694 10693 10694 10695 10697 10698 10699 10700 10701 10701 10702 10702 10703 10704 10704 10705 10706 10707 10707 10708 10709 10710 10710
10673 10673 10673 10674 10675 10676 10678 10679 10681 10684 10687 10694 10701 10694 10682 10679 10680 10681 10683 10686 10687 10688 10690 10691 10691 10692 10692 10692 10692 10692 10693 10694 10695 10696 10697 10698 10698 10699 10699 10700 10700 10700
10669 10669 10668 10668 10669 10670 10672 10673 10676 10678 10681 10688 10693 10688 10679 10675 10673 10673 10676 10678 10679 10679 10680 10680 10681 10681 10682 10683 10682 10683 10684 10685 10686 10687 10688 10689 10690 10690 10690 10690 10690 10690
10663 10663 10663 10663 10663 10664 10665 10667 10669 10670 10673 10677 10680 10681 10680 10676 10670 10669 10670 10670 10669 10669 10669 10670 10671 10671 10672 10673 10673 10674 10675 10676 10677 10678 10679 10680 10680 10679 10679 10679 10680 10680
10657 10657 10657 10657 10657 10657 10658 10659 10660 10662 10664 10666 10668 10670 10671 10669 10665 10663 10662 10661 10661 10661 10662 10662 10662 10662 10663 10663 10663 10664 10664 10666 10667 10669 10669 10669 10668 10668 10669 10670 10670 10672
10651 10651 10652 10652 10652 10651 10651 10652 10652 10653 10655 10657 10659 10660 10660 10658 10656 10656 10654 10653 10653 10653 10654 10654 10654 10653 10653 10652 10653 10654 10655 10657 10657 10658 10658 10659 10658 10659 10661 10660 10660 10661
10646 10645 10646 10646 10646 10645 10645 10645 10644 10645 10647 10649 10650 10651 10650 10648 10647 10647 10646 10645 10645 10645 10646 10646 10646 10645 10644 10644 10644 10646 10649 10649 10649 10648 10649 10649 10649 10650 10651 10651 10650 10650
10641 10640 10639 10640 10640 10640 10639 10638 10638 10639 10640 10641 10641 10641 10641 10639 10637 10638 10638 10637 10637 10637 10638 10638 10638 10638 10638 10637 10638 10640 10642 10643 10642 10641 10640 10640 10640 10640 10640 10641 10641 10641
10636 10634 10633 10633 10634 10634 10633 10633 10632 10632 10633 10635 10634 10633 10632 10630 10629 10630 10630 10629 10629 10630 10630 10630 10630 10630 10631 10632 10634 10636 10638 10639 10637 10634 10631 10630 10631 10631 10630 10631 10631 10631
10633 10630 10628 10628 10628 10628 10627 10627 10626 10626 10627 10628 10628 10628 10627 10625 10623 10623 10623 10623 10623 10624 10624 10623 10622 10623 10624 10626 10629 10631 10634 10635 10633 10628 10624 10622 10623 10623 10621 10621 10621 10621
10629 10626 10624 10622 10622 10622 10621 10620 10620 10620 10620 10621 10621 10621 10620 10619 10617 10616 10616 10617 10618 10618 10617 10616 10615 10616 10617 10619 10622 10624 10626 10627 10625 10623 10619 10615 10614 10614 10612 10612 10612 10612
10625 10623 10621 10618 10617 10616 10615 10614 10613 10613 10613 10614 10613 10613 10613 10613 10611 10610 10610 10611 10612 10612 10611 10610 10609 10610 10611 10612 10613 10614 10616 10616 10615 10615 10611 10607 10606 10605 10604 10603 10603 10602
10621 10619 10617 10615 10612 10611 10610 10609 10607 10607 10607 10607 10607 10606 10607 10607 10606 10605 10604 10605 10606 10605 10605 10604 10603 10602 10603 10604 10605 10606 10606 10606 10606 10605 10603 10600 10598 10597 10595 10595 10593 10593
10617 10615 10613 10610 10608 10606 10604 10603 10602 10602 10601 10601 10601 10601 10601 10601 10601 10600 10600 10600 10600 10599 10598 10598 10597 10596 10596 10596 10597 10598 10598 10597 10596 10595 10593 10591 10589 10587 10586 10586 10585 10585
10613 10610 10608 10606 10604 10601 10599 10597 10596 10596 10595 10595 10595 10595 10596 10596 10595 10595 10595 10595 10594 10593 10592 10591 10590 10589 10589 10589 10590 10591 10590 10588 10586 10584 10582 10581 10580 10579 10577 10577 10576 10576
10608 10606 10603 10601 10599 10597 10595 10593 10591 10590 10590 10589 10589 10589 10589 10590 10589 10590 10590 10589 10588 10586 10585 10584 10584 10583 10583 10583 10583 10583 10582 10580 10578 10576 10573 10571 10571 10571 10569 10568 10568 10567
10604 10601 10599 10597 10595 10592 10591 10589 10587 10585 10584 10583 10583 10582 10583 10583 10582 10582 10582 10582 10580 10579 10578 10578 10578 10578 10577 10576 10577 10576 10574 10572 10571 10568 10566 10564 10563 10563 10562 10561 10560 10559
10599 10597 10594 10592 10590 10588 10586 10584 10582 10580 10578 10577 10577 10576 10576 10576 10575 10575 10574 10574 10573 10573 10573 10572 10572 10572 10571 10570 10570 10569 10567 10565 10564 10561 10559 10558 10557 10556 10555 10554 10553 10552
10594 10592 10589 10587 10585 10583 10581 10579 10577 10575 10573 10571 10570 10570 10569 10569 10568 10567 10567 10567 10567 10567 10566 10565 10565 10564 10563 10563 10562 10561 10559 10558 10557 10555 10553 10552 10551 10549 10548 10547 10546 10545
10588 10586 10584 10582 10579 10577 10576 10574 10572 10570 10568 10567 10565 10564 10563 10563 10562 10561 10561 10560 10560 10559 10559 10558 10557 10557 10556 10555 10554 10553 10552 10552 10551 10549 10547 10547 10546 10544 10542 10541 10540 10539
10582 10581 10579 10577 10574 10572 10570 10568 10566 10564 10563 10562 10561 10559 10557 10556 10555 10554 10554 10553 10552 10552 10551 10550 10550 10549 10549 10548 10547 10546 10545 10545 10544 10542 10541 10541 10540 10538 10536 10535 10534 10533